NOAA 17 DEB, 48702

Orbit data source: Space-Track

NOAA 17 DEB, 48702 is space debris in SSO originally from a launch on Mon, 24 Jun 2002 UTC launched from the Air Force Western Test Range (AFWTR). Debris objects in space refer to the collection of defunct objects orbiting the Earth. Examples of debris include non-operational satellites, rocket bodies, and fragments generated from explosions, collisions, or faulty payload assembly.

Loading next visibility...
Identifier
48702, 2002-032AK
Orbit
SSO
Country
Flag of USUS
Related business
Manufacturer
Unknown
Mission
Spacecraft
Bus & Motor
Unknown
Mass
Unknown
Launch date (UTC)
2002-06-24 (24 years ago)
Launch vehicle
Unknown
Launch site
Air Force Western Test Range (AFWTR)
Object type
Payload
Rocket body
Debris
Shape & HBR
Unknown shape, 0.1 m
Radar Cross Section
Medium (>0.1 m² and <1 m²)

Expand to show TLE details & history
Last TLE update: 2 days ago

TLE from 2 days ago
0 NOAA 17 DEB
1 48702U 02032AK  26171.45116571  .00016110  00000-0  23319-2 0  9994
2 48702  98.6586 163.1564 0008108 139.4477 220.7335 14.76186580277243
Epoch: 2026-06-20T10:49Z
TLE epoch observation values (Epoch: 2026-06-20T10:49:40.717Z)
Latitude
-0.0001°
Longitude
92.07116°
Altitude
648.695 km
Speed
7.531 km/s
True Right ascension
10h 52m 37s
True Declination
0° 00' 00"
Sunlit
Object was in daylight at epoch
Visualization orbit readout
Latitude
Unknown
Longitude
Unknown
Altitude
Unknown
Speed
Unknown
Apparent Right ascension
Unknown
Apparent Declination
Unknown
Sunlit
N/A
Visualization observer readout
Local Sidereal Time
23:18:19
Azimuth
Unknown
Elevation
Unknown
Doppler factor
Unknown
Orbital elements
Apogee altitude
644.158 km
Perigee altitude
632.78 km
Semi-major axis
7,016.606 km
Eccentricity
0.00081
Inclination
98.6586°
RAAN
163.1564°
Arg. of periapsis
139.4477°
True anomaly
220.67292°
Mean anomaly
220.7335°
Eccentric anomaly
220.7032°
Mean motion
3.69277 °/min
Orbital period
97.49 mins
BSTAR
0.0023319
Loading maneuver chart data...
Computing Atmospheric mass density...
Loading historical data...
Loading historical data...
Loading historical data...
Loading historical data...
Loading historical data...
Loading historical data...
Loading historical data...

Documentation

Showing up to 5 results
|